Location: Valdosta
(30.8330°N, 83.2790°W)
Time: 16:07:24
(UTC-04:00)

Daily predictions for brighter satellites

Satellite Brightness Start Highest point End
(mag) Time Altitude Azimuth Time Altitude Azimuth Time Altitude Azimuth
CZ-4 R/B 3.6 19:50:22 10° SSW 19:54:00 32° W 19:57:44 10° NW
Tiangong 2 2.0 19:51:54 10° NW 19:54:55 36° NNE 19:57:54 10° E
Cosmos 1709 Rocket 4.1 19:51:32 10° S 19:57:43 61° E 20:03:59 10° NNE
COSMO-SKYMED 1 3.8 19:53:50 10° N 19:58:02 48° WNW 20:02:11 10° SSW
Cosmos 1707 4.3 19:56:38 10° NE 19:59:17 17° ENE 20:01:54 10° ESE
FENGYUN 3A 3.8 19:57:12 10° SSE 20:02:23 54° ENE 20:07:36 10° N
Cosmos 2369 Rocket 2.3 19:58:50 10° N 20:04:22 54° ENE 20:09:50 10° SE
USA 234 4.0 19:58:54 10° SSE 20:05:17 56° SW 20:11:42 10° NW
Yuri Rocket 4.4 20:02:37 10° SW 20:06:14 23° SSE 20:09:22 11° ESE
Cosmos 1340 Rocket 3.8 20:03:08 10° NNE 20:06:39 28° ENE 20:10:10 10° SE
Cosmos 389 Rocket 2.5 20:03:14 10° S 20:06:42 59° E 20:10:10 10° NNE
ALOS 2.3 20:02:12 10° SSE 20:06:48 63° ENE 20:11:25 10° N
Cosmos 1758 Rocket 4.3 20:03:41 10° NNE 20:07:42 32° E 20:11:43 10° SE
Geosat 4.1 20:04:03 10° SE 20:08:58 60° ENE 20:13:55 10° NNW
Cosmos 1726 Rocket 3.7 20:05:52 10° SSE 20:10:06 51° E 20:14:20 10° NNE
OAO 2 Rocket 3.5 20:05:21 10° WNW 20:10:42 87° SSW 20:15:36 12° ESE
Lacrosse 5 2.1 20:07:19 10° NNW 20:12:18 54° NE 20:17:14 10° SE
Cosmos 1271 Rocket 2.7 20:09:06 10° S 20:12:50 85° W 20:16:38 10° N
FREGAT/IRIS 3.0 20:12:52 10° SSE 20:15:44 40° ENE 20:18:37 10° N
Resurs 01 Rocket 3.2 20:16:42 14° E 20:18:09 16° ENE 20:20:49 10° NNE
Cosmos 2263 4.3 20:17:10 10° N 20:22:41 56° ENE 20:28:13 10° SE
CZ-2D R/B 4.5 20:26:32 20° E 20:27:32 22° ENE 20:30:30 10° NNE
FALCON 9 R/B 1.7 20:26:09 10° W 20:28:49 57° N 20:33:20 15° ENE
SJ-6B 3.0 20:26:49 10° SSE 20:30:45 50° ENE 20:34:39 10° N
Cosmos 841 Rocket 3.5 20:25:52 10° S 20:30:52 54° ESE 20:35:53 10° NNE
BREEZE-M DEB (TANK) 4.2 20:30:05 10° S 20:31:39 14° SSE 20:31:39 14° SSE
Cosmos 1937 Rocket 3.8 20:30:55 10° N 20:35:59 45° ENE 20:39:53 16° SE
Cosmos 1378 3.3 20:34:14 10° N 20:37:54 48° E 20:40:42 16° SSE
Meteor 1-24 Rocket 4.5 20:36:05 10° NNE 20:41:23 33° ENE 20:44:00 23° ESE
USA 229 DEB 4.0 20:34:32 10° NNW 20:41:38 56° ENE 20:46:57 19° SE
USA 229 4.0 20:34:39 10° NNW 20:41:43 56° ENE 20:46:59 19° SE
HJ-1C 3.2 20:41:24 16° SSE 20:44:00 69° ENE 20:47:20 10° N
Cosmos 2058 Rocket 3.0 20:40:44 10° S 20:45:04 83° W 20:49:27 10° N
Cosmos 2084 3.7 20:44:37 10° SW 20:48:47 64° WNW 20:52:44 10° NNE
Cosmos 2228 3.1 20:45:33 10° S 20:49:55 80° W 20:54:17 10° N
Cosmos 1763 Rocket 3.9 20:48:50 10° SSW 20:53:50 61° WNW 20:58:55 10° N
Cosmos 1953 Rocket 3.7 20:49:46 10° N 20:54:04 71° W 20:58:21 10° S
Shenzhou-11 Module 3.9 20:53:55 10° W 20:56:24 23° SW 20:57:18 20° SSW
MOS 1-B Rocket 4.4 20:55:10 26° SE 20:58:21 43° ENE 21:03:52 10° N
Cosmos 540 Rocket 3.5 20:58:13 10° S 21:03:09 52° ESE 21:08:06 10° NNE
ATLAS CENTAUR R/B 3.3 20:53:48 10° NNW 21:04:22 43° NE 21:05:46 36° ENE
Meteor 2-5 Rocket 3.8 21:00:59 10° N 21:06:52 84° W 21:12:34 10° S
Meteor 2-19 Rocket 4.5 21:02:24 10° SSE 21:08:14 52° E 21:14:05 10° NNE
GEOS 3 Rocket 3.7 21:03:55 10° NNE 21:09:20 86° WNW 21:14:42 10° SW
H-2A R/B 4.2 21:06:37 10° SSW 21:10:02 36° W 21:13:29 10° NNW
Meteor 1-22 Rocket 4.2 21:04:57 10° S 21:10:49 89° W 21:16:29 10° N
Cosmos 1943 Rocket 2.6 21:07:44 10° NNW 21:13:14 61° WSW 21:17:55 14° S
Spot 2 Rocket 3.4 21:12:52 54° ESE 21:13:37 60° ENE 21:18:34 10° N
EXPRESS MD2 4.5 21:11:00 10° WNW 21:14:12 43° SW 21:16:17 28° S
Cosmos 836 Rocket 4.3 21:10:13 10° S 21:15:29 77° ESE 21:20:46 10° NNE
Cosmos 1766 3.5 21:14:45 10° SSW 21:18:41 68° W 21:22:36 10° N
GPS 2-04 Rocket1 3.5 21:18:42 10° W 21:22:45 47° SSW 21:22:45 47° SSW
Cosmos 2154 Rocket 3.8 21:22:07 23° S 21:26:02 68° E 21:32:13 10° NNE
COSMOS 2406 3.3 21:21:45 10° SSW 21:27:25 74° WNW 21:33:09 10° NNE
Tiangong 2 3.7 21:29:06 10° W 21:30:36 19° WSW 21:30:36 19° WSW
Delta 2 Rocket 4.3 21:28:13 10° WSW 21:36:01 55° S 21:36:38 53° SSE
Resurs 1-3 4.2 21:40:35 55° W 21:40:35 55° W 21:44:36 10° NNW
Envisat 3.2 21:45:42 68° W 21:45:42 68° W 21:50:39 10° NNW
Resurs 01 Rocket 3.0 21:54:17 35° W 21:54:17 35° W 21:58:20 10° NNW
Lacrosse 5 4.2 21:51:40 10° WNW 21:54:49 17° WSW 21:56:38 14° SW
Cosmos 1656 Rocket 4.0 21:50:19 10° NNW 21:55:34 62° W 21:55:34 62° W
Nadezhda 3 Rocket 4.3 22:00:13 10° N 22:05:25 62° NNW 22:05:25 62° NNW
BREEZE-M (TANK) 4.3 21:59:50 10° NW 22:05:13 39° WNW 22:05:13 39° WNW
Milstar 3 Cent rocket 4.4 22:25:12 10° WSW 22:25:52 14° WSW 22:25:52 14° WSW
NOSS 3-1 (A) 4.4 22:29:30 10° NW 22:36:22 64° WNW 22:36:22 64° WNW
